Location: Newark
(48.0000°N, 67.0000°E)
Time: 21:13:10
(UTC+00:00)

Transit 4A - All Passes

Search period start: 17 February 2020 00:00
Search period end: 27 February 2020 00:00
Orbit: 872 x 973 km, 66.8° (Epoch: 16 February)

Date Brightness Start Highest point End Pass type
(mag) Time Alt. Az. Time Alt. Az. Time Alt. Az.
17 Feb - 01:02:32 10° NNW 01:04:45 12° N 01:06:57 10° NNE visible
17 Feb - 02:50:09 10° NNW 02:53:45 16° NNE 02:57:22 10° ENE daylight
17 Feb - 04:35:58 10° NNW 04:41:36 47° NE 04:47:16 10° ESE daylight
17 Feb - 06:22:32 10° NW 06:27:52 38° WSW 06:33:15 10° S daylight
17 Feb - 19:47:15 10° SSE 19:52:13 28° ESE 19:57:08 10° NE night (unlit)
17 Feb - 21:32:21 10° SW 21:38:13 60° NW 21:44:00 10° NNE visible
17 Feb - 23:21:43 10° WNW 23:25:48 19° NNW 23:29:52 10° NNE visible
18 Feb - 01:12:37 10° NNW 01:14:41 12° N 01:16:46 10° NNE visible
18 Feb - 02:59:23 10° NNW 03:03:32 20° NNE 03:07:43 10° ENE daylight
18 Feb - 04:45:15 10° NNW 04:51:04 64° NE 04:56:55 10° SE daylight
18 Feb - 06:32:14 10° NW 06:36:58 26° WSW 06:41:46 10° SSW daylight
18 Feb - 19:55:51 10° S 20:01:21 41° ESE 20:06:47 10° NE visible
18 Feb - 21:42:03 10° WSW 21:47:41 44° NW 21:53:16 10° NNE visible
18 Feb - 23:32:06 10° WNW 23:35:36 16° NNW 23:39:06 10° NNE visible
19 Feb - 01:22:22 10° NNW 01:24:38 12° N 01:26:54 10° NNE visible
19 Feb - 03:08:36 10° NNW 03:13:16 24° NNE 03:17:57 10° E daylight
19 Feb - 04:54:33 10° NW 05:00:26 87° ENE 05:06:22 10° SE daylight
19 Feb - 06:42:14 10° WNW 06:46:02 18° WSW 06:49:50 10° SW daylight
19 Feb - 20:04:45 10° SSW 20:10:33 58° ESE 20:16:18 10° NE visible
19 Feb - 21:51:54 10° WSW 21:57:13 34° NW 22:02:30 10° NNE visible
19 Feb - 23:42:32 10° NW 23:45:28 14° NNW 23:48:24 10° NNE visible
20 Feb - 01:31:51 10° NNW 01:34:33 13° NNE 01:37:14 10° NE visible
20 Feb - 03:17:49 10° NNW 03:22:55 30° NE 03:28:04 10° E daylight
20 Feb - 05:03:56 10° NW 05:09:44 68° WSW 05:15:36 10° SSE daylight
20 Feb - 06:53:06 10° W 06:55:00 12° W 06:56:55 10° WSW daylight
20 Feb - 18:31:09 10° SE 18:34:22 15° ESE 18:37:33 10° ENE night (unlit)
20 Feb - 20:13:53 10° SSW 20:19:49 82° SE 20:25:42 10° NE visible
20 Feb - 22:01:57 10° W 22:06:51 26° NW 22:11:44 10° NNE visible
20 Feb - 23:52:56 10° NW 23:55:22 13° N 23:57:48 10° NNE visible
21 Feb - 01:41:11 10° NNW 01:44:25 15° NNE 01:47:41 10° NE visible
21 Feb - 03:27:02 10° NNW 03:32:30 39° NE 03:37:59 10° ESE daylight
21 Feb - 05:13:23 10° NW 05:18:58 47° WSW 05:24:37 10° S daylight
21 Feb - 18:38:57 10° SSE 18:43:23 22° ESE 18:47:48 10° ENE night (unlit)
21 Feb - 20:23:15 10° SW 20:29:10 73° NW 20:35:02 10° NNE visible
21 Feb - 22:12:07 10° W 22:16:32 21° NNW 22:20:56 10° NNE visible
22 Feb - 00:03:11 10° NNW 00:05:18 12° N 00:07:26 10° NNE visible
22 Feb - 01:50:27 10° NNW 01:54:16 17° NNE 01:58:05 10° ENE visible
22 Feb - 03:36:17 10° NNW 03:41:59 52° NE 03:47:45 10° SE daylight
22 Feb - 05:22:58 10° NW 05:28:08 33° WSW 05:33:21 10° S daylight
22 Feb - 18:47:18 10° S 18:52:29 32° ESE 18:57:36 10° NE night (unlit)
22 Feb - 20:32:49 10° SW 20:38:36 53° NW 20:44:19 10° NNE visible
22 Feb - 22:22:26 10° WNW 22:26:18 18° NNW 22:30:09 10° NNE visible
23 Feb - 00:13:08 10° NNW 00:15:15 12° N 00:17:22 10° NNE visible
23 Feb - 01:59:40 10° NNW 02:04:02 21° NNE 02:08:24 10° ENE daylight
23 Feb - 03:45:34 10° NNW 03:51:25 71° NE 03:57:20 10° SE daylight
23 Feb - 05:32:46 10° WNW 05:37:13 23° WSW 05:41:44 10° SSW daylight
23 Feb - 18:56:00 10° S 19:01:39 46° ESE 19:07:12 10° NE night (unlit)
23 Feb - 20:42:34 10° WSW 20:48:05 40° NW 20:53:35 10° NNE visible
23 Feb - 22:32:50 10° NW 22:36:08 15° NNW 22:39:25 10° NNE visible
24 Feb - 00:22:47 10° NNW 00:25:11 12° N 00:27:35 10° NNE visible
24 Feb - 02:08:53 10° NNW 02:13:44 26° NE 02:18:36 10° E daylight
24 Feb - 03:54:54 10° NW 04:00:46 84° WSW 04:06:43 10° SSE daylight
24 Feb - 05:42:58 10° WNW 05:46:15 15° WSW 05:49:34 10° SW daylight
24 Feb - 17:23:57 10° ESE 17:25:37 11° E 17:27:17 10° E night (unlit)
24 Feb - 19:05:01 10° SSW 19:10:52 66° ESE 19:16:40 10° NE night (unlit)
24 Feb - 20:52:30 10° W 20:57:40 31° NW 21:02:47 10° NNE visible
24 Feb - 22:43:16 10° NW 22:46:01 13° NNW 22:48:45 10° NNE visible
25 Feb - 00:32:12 10° NNW 00:35:05 14° NNE 00:37:59 10° NE visible
25 Feb - 02:18:06 10° NNW 02:23:21 33° NE 02:28:39 10° ESE daylight
25 Feb - 04:04:17 10° NW 04:10:03 60° WSW 04:15:52 10° SSE daylight
25 Feb - 17:30:52 10° SE 17:34:36 17° ESE 17:38:17 10° ENE night (unlit)
25 Feb - 19:14:14 10° SSW 19:20:10 89° WNW 19:26:03 10° NE visible
25 Feb - 21:02:35 10° W 21:07:18 24° NW 21:12:01 10° NNE visible
25 Feb - 22:53:38 10° NNW 22:55:56 12° N 22:58:13 10° NNE visible
26 Feb - 00:41:31 10° NNW 00:44:58 16° NNE 00:48:25 10° ENE visible
26 Feb - 02:27:21 10° NNW 02:32:54 43° NE 02:38:31 10° ESE daylight
26 Feb - 04:13:48 10° NW 04:19:15 42° WSW 04:24:48 10° S daylight
26 Feb - 17:38:54 10° SSE 17:43:38 25° ESE 17:48:20 10° NE night (unlit)
26 Feb - 19:23:40 10° SW 19:29:32 65° NW 19:35:22 10° NNE visible
26 Feb - 21:12:48 10° WNW 21:17:02 20° NNW 21:21:14 10° NNE visible
26 Feb - 23:03:47 10° NNW 23:05:52 12° N 23:07:57 10° NNE visible
